[[{"header":{"parameterUnit":"m.s-1","parameterCategory":1,"la1":30.2991,"la2":30.254,"lo1":-89.0895,"lo2":-89.0444,"dy":0.0017,"dx":0.0017,"nx":28,"ny":28,"refTime":"2024-10-05T03:00:00:Z","depth":0,"parameterNumber":2,"parameterNumberName":"U-component_of_WINDS"},"data":[0,0,0,0,0,0,0,0,0,0,0,0,0,0,0,0,0,0,0,0,0,0,0,0,0,0,0,0,0,0,0,0,0,0,0,0,0,0,0,0,0,0,0,0,0,0,0,0,0,0,0,0,0,0,0,0,0,0,-4.1783,-4.1784,0,-4.1872,-4.1873,-4.1874,-4.1762,-4.1758,-4.1754,-4.175,-4.1843,-4.185,-4.1856,0,0,0,0,0,0,0,0,0,0,0,0,0,-4.1517,-4.1522,-4.1783,-4.1784,-4.1785,-4.1872,-4.1873,-4.1874,-4.1763,-4.1758,-4.1753,-4.1748,-4.1841,-4.1849,-4.1856,0,0,0,0,0,0,0,0,0,0,0,0,0,-4.1622,-4.1524,-4.1782,-4.174,-4.1737,-4.1872,-4.1873,-4.1875,-4.1764,-4.1758,-4.1752,-4.1746,-4.1839,-4.1848,-4.1857,-4.2039,0,0,-4.1886,-4.189,0,0,0,0,0,0,0,0,-4.1616,-4.1632,-4.1745,-4.1743,-4.174,-4.18,-4.1813,-4.193,-4.1766,-4.1754,-4.175,-4.1743,-4.1834,-4.1843,-4.1874,-4.2043,-4.2047,-4.1887,-4.1893,-4.1897,-4.19,0,0,0,0,0,0,0,-4.1609,-4.1627,-4.1818,-4.1747,-4.1744,-4.1716,-4.1725,-4.1835,-4.1827,-4.1754,-4.1747,-4.1759,-4.1831,-4.1865,-4.1875,-4.2048,-4.1887,-4.1895,-4.1901,-4.1905,-4.2371,-4.2378,0,0,0,0,0,0,-4.1606,-4.1622,-4.1815,-4.1821,-4.1662,-4.1726,-4.1735,-4.1787,-4.1826,-4.1826,-4.1764,-4.1753,-4.1852,-4.1864,-4.1878,-4.2094,-4.1897,-4.1906,-4.1911,-4.2365,-4.2373,-4.238,0,0,0,0,0,0,-4.1601,-4.1625,-4.1811,-4.1719,-4.1741,-4.1737,-4.1796,-4.1792,-4.1825,-4.1833,-4.1831,-4.1799,-4.1847,-4.1865,-4.1999,-4.2095,-4.191,-4.1918,-4.2357,-4.2367,-4.2376,-4.2526,0,0,0,0,0,0,-4.1594,-4.1623,-4.1692,-4.1722,-4.1746,-4.1932,-4.1802,-4.1798,-4.1842,-4.1828,-4.1866,-4.1866,-4.1844,-4.1986,-4.2009,-4.2105,-4.1926,-4.2348,-4.2361,-4.2373,-4.2513,-4.254,-4.2564,0,0,0,0,0,-4.1585,-4.1731,-4.1696,-4.172,-4.1832,-4.1938,-4.1952,-4.1923,-4.185,-4.1919,-4.1924,-4.1865,-4.2081,-4.2001,-4.2026,-4.2126,-4.2342,-4.2358,-4.2372,-4.2501,-4.2535,-4.2563,0,0,0,0,0,0,-4.1714,-4.1734,-4.1696,-4.1856,-4.1896,-4.1919,-4.2005,-4.1959,-4.2021,-4.2007,-4.1968,-4.1978,-4.2122,-4.2137,-4.2047,-4.2303,-4.2199,-4.222,-4.2289,-4.2321,-4.2346,-4.234,-4.1934,0,0,0,0,0,-4.1761,-4.1845,-4.1858,-4.1998,-4.202,-4.2009,-4.2054,-4.2028,-4.2068,-4.2085,-4.2099,-4.2141,-4.2218,-4.227,-4.2341,-4.2513,-4.2521,-4.2594,-4.262,-4.2641,-4.266,-4.2753,-4.2787,-4.243,-4.243,-4.2429,0,0,-4.1859,-4.1881,-4.1936,-4.2024,-4.2052,-4.214,-4.2024,-4.2122,-4.2187,-4.21,-4.2228,-4.2241,-4.2284,-4.2439,-4.2508,-4.2456,-4.276,-4.266,-4.2677,-4.2685,-4.2772,-4.2806,-4.2836,-4.244,-4.2438,-4.2436,0,0,-4.2084,-4.2108,-4.2227,-4.2258,-4.2301,-4.2293,-4.2322,-4.2351,-4.2356,-4.2484,-4.242,-4.2497,-4.263,-4.2664,-4.2699,-4.2935,-4.2884,-4.2959,-4.3093,-4.3185,-4.3213,-4.3238,-4.3323,-4.3354,-4.2978,-4.2978,-4.2979,0,-4.2201,-4.2331,-4.2295,-4.2398,-4.2439,-4.2362,-4.2483,-4.2514,-4.2579,-4.261,-4.255,-4.2716,-4.274,-4.2902,-4.296,-4.299,-4.3022,-4.2956,-4.3211,-4.3236,-4.3259,-4.334,-4.3372,-4.2987,-4.2986,-4.2985,-4.2985,0,-4.2473,-4.2564,-4.2655,-4.272,-4.277,-4.2882,-4.2864,-4.2919,-4.2889,-4.2887,-4.3019,-4.3044,-4.312,-4.3156,-4.3127,-4.3314,-4.3281,-4.3217,-4.3112,-4.3302,-4.3378,-4.3409,-4.3,-4.2997,-4.2994,-4.2992,0,0,-4.2784,-4.2826,-4.286,-4.2888,-4.293,-4.3,-4.3108,-4.3181,-4.323,-4.3277,-4.3367,-4.3481,-4.3422,-4.3462,-4.3436,-4.3516,-4.3703,-4.3442,-4.3442,-4.3491,-4.3912,-4.3962,-4.3998,-4.3668,-4.3674,-4.3678,-4.3909,0,-4.301,-4.3196,-4.3167,-4.3348,-4.3432,-4.336,-4.3453,-4.349,-4.3491,-4.3562,-4.3563,-4.3645,-4.356,-4.3584,-4.3659,-4.3664,-4.3787,-4.3647,-4.3753,-4.3757,-4.3747,-4.4038,-4.409,-4.4307,-4.3938,-4.3943,-4.3947,0,-4.3299,-4.3356,-4.3545,-4.3574,-4.3608,-4.3693,-4.3758,-4.3826,-4.3866,-4.3861,-4.3905,-4.3864,-4.3972,-4.3863,-4.4012,-4.3918,-4.3959,-4.3968,-4.3975,-4.3986,-4.3865,-4.4058,-4.4375,-4.4409,-4.3993,-4.3989,-4.3986,0,-4.3509,-4.3633,-4.3762,-4.3788,-4.3824,-4.3886,-4.3904,-4.3937,-4.3982,-4.4039,-4.4068,-4.4137,-4.4175,-4.4229,-4.4208,-4.413,-4.4362,-4.4251,-4.4362,-4.4363,-4.4416,-4.4413,-4.4746,-4.4439,-4.4439,-4.4438,-4.4437,0,-4.3766,-4.3885,-4.3857,-4.3937,-4.4068,-4.4032,-4.4163,-4.4172,-4.4202,-4.4283,-4.4224,-4.4301,-4.4267,-4.4342,-4.4326,-4.4453,-4.447,-4.447,-4.4465,-4.4477,-4.4477,-4.4505,-4.449,-4.4446,-4.4445,-4.4443,-4.4441,0,-4.4023,-4.4009,-4.4146,-4.4168,-4.4176,-4.4272,-4.4292,-4.4367,-4.4362,-4.4465,-4.4487,-4.4481,-4.4566,-4.4549,-4.4643,-4.4632,-4.4792,-4.4767,-4.4779,-4.4774,-4.4886,-4.4877,-4.5251,-4.5299,-4.4959,-4.4962,-4.4965,0,-4.4189,-4.4279,-4.4311,-4.4361,-4.4383,-4.4464,-4.451,-4.4478,-4.4528,-4.4579,-4.4649,-4.4728,-4.479,-4.493,-4.4934,-4.5006,-4.4983,-4.5109,-4.4994,-4.5003,-4.4987,-4.4983,-4.4993,-4.5133,-4.5137,-4.514,-4.5142,0,-4.4486,-4.4474,-4.4543,-4.461,-4.4667,-4.4718,-4.4763,-4.4807,-4.4779,-4.4839,-4.4925,-4.4973,-4.5068,-4.5149,-4.5215,-4.5233,-4.5185,-4.5178,-4.5208,-4.5223,-4.5227,-4.5228,-4.4844,-4.5171,-4.5168,-4.5166,-4.5164,-4.5163,-4.4704,-4.4781,-4.4816,-4.4894,-4.4924,-4.4968,-4.504,-4.5044,-4.5115,-4.519,-4.5166,-4.5265,-4.5301,-4.5385,-4.5411,-4.5488,-4.5441,-4.5484,-4.5495,-4.5507,-4.5521,-4.5212,-4.5499,-4.5499,-4.5498,-4.5497,-4.5496,0,-4.5,-4.5018,-4.509,-4.5155,-4.5218,-4.5164,-4.5211,-4.5267,-4.5354,-4.5392,-4.5454,-4.5553,-4.563,-4.564,-4.5713,-4.5772,-4.5752,-4.5793,-4.5789,-4.5795,-4.5558,-4.5526,-4.5808,-4.5808,-4.5808,-4.5808,-4.5808,-4.5808,-4.5161,-4.5288,-4.5281,-4.5422,-4.5439,-4.5535,-4.5567,-4.5607,-4.5637,-4.575,-4.5814,-4.5819,-4.5846,-4.592,-4.5989,-4.5989,-4.602,-4.6071,-4.6063,-4.5842,-4.5811,-4.5782,-4.5751,-4.6077,-4.6077,-4.6294,-4.6296,-4.6297]},{"header":{"parameterUnit":"m.s-1","parameterCategory":1,"la1":30.2991,"la2":30.254,"lo1":-89.0895,"lo2":-89.0444,"dy":0.0017,"dx":0.0017,"nx":28,"ny":28,"refTime":"2024-10-05T03:00:00:Z","depth":0,"parameterNumber":3,"parameterNumberName":"V-component_of_WINDS"},"data":[0,0,0,0,0,0,0,0,0,0,0,0,0,0,0,0,0,0,0,0,0,0,0,0,0,0,0,0,0,0,0,0,0,0,0,0,0,0,0,0,0,0,0,0,0,0,0,0,0,0,0,0,0,0,0,0,0,0,-4.3661,-4.3661,0,-4.3648,-4.3648,-4.3648,-4.3579,-4.3577,-4.3575,-4.3574,-4.356,-4.3562,-4.3563,0,0,0,0,0,0,0,0,0,0,0,0,0,-4.3625,-4.3626,-4.3661,-4.3661,-4.3661,-4.3648,-4.3648,-4.3648,-4.3579,-4.3577,-4.3575,-4.3573,-4.356,-4.3561,-4.3563,0,0,0,0,0,0,0,0,0,0,0,0,0,-4.3629,-4.3627,-4.3661,-4.3625,-4.3622,-4.3648,-4.3648,-4.3648,-4.3579,-4.3577,-4.3574,-4.3572,-4.356,-4.3561,-4.3563,-4.3623,0,0,-4.3568,-4.3569,0,0,0,0,0,0,0,0,-4.3629,-4.3631,-4.3631,-4.3628,-4.3624,-4.3613,-4.363,-4.364,-4.358,-4.3596,-4.3574,-4.3571,-4.358,-4.358,-4.3583,-4.3623,-4.3622,-4.3569,-4.357,-4.357,-4.3571,0,0,0,0,0,0,0,-4.3629,-4.3631,-4.3656,-4.3631,-4.3627,-4.3609,-4.3607,-4.3632,-4.3602,-4.3594,-4.3589,-4.3588,-4.3577,-4.3581,-4.3582,-4.3622,-4.3568,-4.357,-4.3571,-4.3572,-4.3708,-4.371,0,0,0,0,0,0,-4.3634,-4.3631,-4.3656,-4.3656,-4.3621,-4.3612,-4.3609,-4.3619,-4.3601,-4.3596,-4.359,-4.3585,-4.3579,-4.358,-4.3581,-4.3648,-4.357,-4.3572,-4.3573,-4.3705,-4.3709,-4.3711,0,0,0,0,0,0,-4.3634,-4.3637,-4.3657,-4.3642,-4.3643,-4.3615,-4.3626,-4.362,-4.3623,-4.3598,-4.3593,-4.36,-4.3577,-4.3579,-4.3613,-4.3647,-4.3573,-4.3574,-4.3702,-4.3706,-4.371,-4.3785,0,0,0,0,0,0,-4.3633,-4.3637,-4.366,-4.3643,-4.3644,-4.369,-4.3628,-4.3621,-4.3627,-4.3619,-4.3606,-4.3601,-4.3576,-4.361,-4.3614,-4.3648,-4.3576,-4.3699,-4.3704,-4.3709,-4.378,-4.3791,-4.3801,0,0,0,0,0,-4.3632,-4.3683,-4.3662,-4.3665,-4.3673,-4.3692,-4.3692,-4.3662,-4.363,-4.3652,-4.3636,-4.3602,-4.3643,-4.3615,-4.3618,-4.3653,-4.3697,-4.3703,-4.3708,-4.3775,-4.3789,-4.3801,0,0,0,0,0,0,-4.3705,-4.368,-4.3656,-4.3703,-4.37,-4.368,-4.3708,-4.3678,-4.3684,-4.3678,-4.3639,-4.3637,-4.3676,-4.3668,-4.3637,-4.3709,-4.3664,-4.3671,-4.3713,-4.3726,-4.3737,-4.3738,-4.3577,0,0,0,0,0,-4.3727,-4.3745,-4.3721,-4.3765,-4.3765,-4.3737,-4.3744,-4.372,-4.3716,-4.3714,-4.37,-4.3697,-4.3708,-4.3717,-4.3727,-4.3779,-4.3773,-4.3804,-4.3815,-4.3824,-4.383,-4.3855,-4.3867,-4.373,-4.373,-4.373,0,0,-4.3772,-4.376,-4.3774,-4.3779,-4.3774,-4.3793,-4.3736,-4.3759,-4.3771,-4.3717,-4.3748,-4.3738,-4.3731,-4.3774,-4.3792,-4.3768,-4.3867,-4.3831,-4.3839,-4.384,-4.3862,-4.3875,-4.3886,-4.3734,-4.3733,-4.3733,0,0,-4.3863,-4.3857,-4.3891,-4.3886,-4.3879,-4.386,-4.3868,-4.3852,-4.3843,-4.3873,-4.3832,-4.3847,-4.3869,-4.3865,-4.3866,-4.3954,-4.3922,-4.3958,-4.4015,-4.4039,-4.405,-4.4059,-4.4088,-4.41,-4.3965,-4.3965,-4.3965,0,-4.3919,-4.3946,-4.3912,-4.3937,-4.394,-4.3891,-4.3925,-4.3922,-4.3919,-4.3921,-4.3895,-4.392,-4.3913,-4.3952,-4.3974,-4.3977,-4.3984,-4.3959,-4.4051,-4.406,-4.4068,-4.4096,-4.4107,-4.3969,-4.3969,-4.3968,-4.3968,0,-4.4015,-4.4034,-4.4063,-4.4059,-4.4065,-4.4095,-4.4065,-4.4075,-4.4051,-4.4034,-4.4065,-4.4054,-4.4059,-4.4067,-4.4045,-4.4104,-4.4089,-4.4058,-4.4011,-4.4086,-4.4111,-4.4122,-4.3975,-4.3974,-4.3973,-4.3971,0,0,-4.4152,-4.4129,-4.414,-4.4136,-4.4124,-4.4138,-4.4164,-4.4169,-4.4178,-4.4177,-4.4197,-4.4216,-4.4186,-4.4187,-4.4163,-4.4185,-4.4252,-4.415,-4.4149,-4.4168,-4.4315,-4.4337,-4.435,-4.4232,-4.4234,-4.4235,-4.4314,0,-4.4238,-4.4281,-4.4251,-4.4299,-4.4315,-4.4268,-4.4291,-4.4285,-4.427,-4.4281,-4.4264,-4.4277,-4.4238,-4.4238,-4.4257,-4.424,-4.4281,-4.4234,-4.4249,-4.425,-4.425,-4.4364,-4.4388,-4.4464,-4.4324,-4.4326,-4.4327,0,-4.4343,-4.4346,-4.4395,-4.4377,-4.4383,-4.4404,-4.4405,-4.4416,-4.4408,-4.4395,-4.4396,-4.4366,-4.439,-4.4345,-4.4376,-4.4344,-4.4349,-4.4341,-4.4343,-4.4342,-4.4292,-4.4364,-4.4487,-4.4498,-4.4343,-4.4342,-4.434,0,-4.4436,-4.4452,-4.4483,-4.4482,-4.4462,-4.4478,-4.447,-4.446,-4.4464,-4.4465,-4.4467,-4.4472,-4.4473,-4.4477,-4.4448,-4.4419,-4.4483,-4.4436,-4.4472,-4.4472,-4.4486,-4.4486,-4.461,-4.4492,-4.4492,-4.4492,-4.4491,0,-4.4534,-4.4566,-4.4524,-4.4543,-4.4576,-4.4541,-4.4575,-4.4563,-4.4554,-4.4569,-4.4529,-4.4544,-4.4506,-4.4517,-4.4495,-4.4523,-4.4525,-4.4514,-4.4508,-4.4517,-4.4518,-4.4518,-4.4512,-4.4494,-4.4494,-4.4493,-4.4493,0,-4.4643,-4.4616,-4.4647,-4.4625,-4.462,-4.4646,-4.4627,-4.4643,-4.4625,-4.4644,-4.4647,-4.4618,-4.4629,-4.4601,-4.4608,-4.4593,-4.4632,-4.4618,-4.4635,-4.463,-4.4667,-4.4663,-4.4795,-4.4809,-4.4684,-4.4685,-4.4686,0,-4.4706,-4.4729,-4.471,-4.4716,-4.4711,-4.4723,-4.4727,-4.4693,-4.4698,-4.469,-4.4707,-4.4714,-4.4717,-4.4736,-4.4716,-4.472,-4.4705,-4.4751,-4.4705,-4.4713,-4.4703,-4.4702,-4.4703,-4.476,-4.4761,-4.4762,-4.4763,0,-4.4821,-4.4806,-4.4813,-4.4815,-4.482,-4.482,-4.4817,-4.4825,-4.4789,-4.4797,-4.4806,-4.4809,-4.4815,-4.4822,-4.4822,-4.4813,-4.4782,-4.4778,-4.4786,-4.4795,-4.4803,-4.4797,-4.4659,-4.4775,-4.4774,-4.4773,-4.4772,-4.4772,-4.4908,-4.4925,-4.4913,-4.4922,-4.4916,-4.4914,-4.4927,-4.491,-4.4917,-4.4919,-4.4899,-4.4912,-4.4902,-4.4898,-4.4893,-4.4903,-4.4882,-4.4894,-4.4897,-4.49,-4.4905,-4.4803,-4.4903,-4.4902,-4.4902,-4.4902,-4.4901,0,-4.5019,-4.5008,-4.5016,-4.5013,-4.5019,-4.4989,-4.4984,-4.4991,-4.5003,-4.4996,-4.5,-4.5011,-4.5017,-4.4997,-4.5,-4.5011,-4.4997,-4.5013,-4.5011,-4.5009,-4.4925,-4.4917,-4.5025,-4.5025,-4.5025,-4.5025,-4.5025,-4.5025,-4.5077,-4.5104,-4.5088,-4.5111,-4.51,-4.5113,-4.5112,-4.511,-4.5103,-4.5117,-4.5121,-4.5108,-4.5095,-4.5097,-4.5101,-4.5094,-4.5097,-4.5118,-4.5106,-4.5028,-4.5016,-4.5004,-4.4996,-4.5119,-4.5119,-4.519,-4.519,-4.5191]}]]